This is the latest recevied weather packets stored in our database for station/object JA7ZQY-10. If no packets are shown the sender has not sent any weather packets the latest 10 day(s).
| Time | Temp. | Humidity | Pressure | Rain* | Wind** | Luminosity | Snow |
|---|---|---|---|---|---|---|---|
| 1778023490 | 20.56° C | 32% | 1019.3 hPa | 0 mm | - | - | - |
| 1778022890 | 20° C | 31% | 1019.4 hPa | 0 mm | - | - | - |
| 1778022290 | 20° C | 31% | 1019.4 hPa | 0 mm | - | - | - |
| 1778021691 | 20° C | 30% | 1019.6 hPa | 0 mm | - | - | - |
| 1778021091 | 19.44° C | 30% | 1019.5 hPa | 0 mm | - | - | - |
| 1778020490 | 19.44° C | 30% | 1019.6 hPa | 0 mm | - | - | - |
| 1778019891 | 19.44° C | 28% | 1019.7 hPa | 0 mm | - | - | - |
| 1778019290 | 18.89° C | 27% | 1019.5 hPa | 0 mm | - | - | - |
| 1778018691 | 18.89° C | 27% | 1019.3 hPa | 0 mm | - | - | - |
| 1778018090 | 18.33° C | 28% | 1019.6 hPa | 0 mm | - | - | - |
| 1778017490 | 18.33° C | 27% | 1019.7 hPa | 0 mm | - | - | - |
| 1778016891 | 18.33° C | 27% | 1019.6 hPa | 0 mm | - | - | - |
| 1778016292 | 17.78° C | 26% | 1019.6 hPa | 0 mm | - | - | - |
| 1778015691 | 17.78° C | 26% | 1019.6 hPa | 0 mm | - | - | - |
| 1778015090 | 17.22° C | 30% | 1019.4 hPa | 0 mm | - | - | - |
| 1778014492 | 16.67° C | 30% | 1019.5 hPa | 0 mm | - | - | - |
| 1778013890 | 16.67° C | 30% | 1019.3 hPa | 0 mm | - | - | - |
| 1778013290 | 16.11° C | 30% | 1019.4 hPa | 0 mm | - | - | - |
| 1778012691 | 15.56° C | 30% | 1019.1 hPa | 0 mm | - | - | - |
| 1778012091 | 15.56° C | 30% | 1019 hPa | 0 mm | - | - | - |
| 1778011491 | 15° C | 30% | 1019.1 hPa | 0 mm | - | - | - |
| 1778010891 | 15° C | 30% | 1019.1 hPa | 0 mm | - | - | - |
| 1778010291 | 15° C | 30% | 1018.9 hPa | 0 mm | - | - | - |
| 1778009692 | 15° C | 30% | 1019 hPa | 0 mm | - | - | - |
| 1778009090 | 15° C | 30% | 1018.6 hPa | 0 mm | - | - | - |
* Rain latest hour (hover to see other rain measurements)
** Current wind speed in m/s (hover to see current wind gust speed)